RUDE1 CYQB-KHPN

Flight info

Callsign RUDE1
Flight time 1h 1m
Altitude 38000
Route PENTU Q824 CATOG DCT CAM
Aircraft CL60/M-SBDE1E2E3FGHIJ4J5J7M3RWXYZ/LB1V1D1

Departure

Time 2026-05-06 23:46
Airport Quebec Jean Lesage International Airport (CYQB)

Arrival

Time 2026-05-07 00:47
Airport Westchester County Airport (KHPN)
Time Latitude Longitude Altitude Speed Heading
2026-05-06 23:14 46.79013 -71.38006 229 ft 0 kts 187°
2026-05-06 23:40 46.79012 -71.38006 229 ft 0 kts 187°
2026-05-06 23:41 46.78978 -71.38020 229 ft 7 kts 203°
2026-05-06 23:41 46.78930 -71.38071 230 ft 10 kts 233°
2026-05-06 23:41 46.78921 -71.38174 231 ft 9 kts 278°
2026-05-06 23:41 46.78931 -71.38278 233 ft 11 kts 278°
2026-05-06 23:42 46.78943 -71.38409 234 ft 14 kts 278°
2026-05-06 23:42 46.78959 -71.38535 235 ft 11 kts 302°
2026-05-06 23:42 46.79032 -71.38601 235 ft 10 kts 330°
2026-05-06 23:42 46.79113 -71.38617 234 ft 14 kts 11°
2026-05-06 23:43 46.79211 -71.38590 233 ft 15 kts 11°
2026-05-06 23:43 46.79300 -71.38566 232 ft 12 kts 11°
2026-05-06 23:43 46.79365 -71.38550 231 ft 8 kts
2026-05-06 23:43 46.79424 -71.38574 230 ft 10 kts 14°
2026-05-06 23:44 46.79493 -71.38482 228 ft 16 kts 45°
2026-05-06 23:44 46.79575 -71.38341 225 ft 18 kts 72°
2026-05-06 23:44 46.79660 -71.38178 221 ft 21 kts 45°
2026-05-06 23:44 46.79744 -71.38062 218 ft 10 kts 33°
2026-05-06 23:45 46.79836 -71.38046 216 ft 13 kts
2026-05-06 23:45 46.79905 -71.38045 214 ft 10 kts 359°
2026-05-06 23:45 46.79963 -71.38101 213 ft 11 kts 296°
2026-05-06 23:45 46.79940 -71.38185 215 ft 9 kts 225°
2026-05-06 23:46 46.79764 -71.38442 222 ft 83 kts 225°
2026-05-06 23:46 46.79133 -71.39346 472 ft 150 kts 224°
2026-05-06 23:46 46.78395 -71.40374 1640 ft 155 kts 224°
2026-05-06 23:46 46.77589 -71.41483 2695 ft 175 kts 225°
2026-05-06 23:47 46.76682 -71.42694 3824 ft 191 kts 223°
2026-05-06 23:47 46.75631 -71.44093 4672 ft 222 kts 227°
2026-05-06 23:47 46.74484 -71.45767 5738 ft 250 kts 227°
2026-05-06 23:47 46.73234 -71.47590 7103 ft 265 kts 228°
2026-05-06 23:48 46.71957 -71.49445 8754 ft 265 kts 227°
2026-05-06 23:48 46.70686 -71.51287 10424 ft 263 kts 227°
2026-05-06 23:48 46.69363 -71.53206 11371 ft 286 kts 227°
2026-05-06 23:48 46.67897 -71.55331 12079 ft 312 kts 227°
2026-05-06 23:49 46.66328 -71.57599 13115 ft 324 kts 227°
2026-05-06 23:49 46.64733 -71.59899 14314 ft 328 kts 227°
2026-05-06 23:49 46.63122 -71.62220 15519 ft 331 kts 226°
2026-05-06 23:49 46.61480 -71.64582 16658 ft 334 kts 226°
2026-05-06 23:50 46.59839 -71.66939 17743 ft 337 kts 225°
2026-05-06 23:50 46.56490 -71.71772 19645 ft 344 kts 227°
2026-05-06 23:50 46.54932 -71.74484 20566 ft 347 kts 231°
2026-05-06 23:51 46.53431 -71.77249 21342 ft 352 kts 231°
2026-05-06 23:51 46.51908 -71.80045 22091 ft 357 kts 231°
2026-05-06 23:51 46.50353 -71.82895 22799 ft 361 kts 231°
2026-05-06 23:51 46.48780 -71.85777 23520 ft 365 kts 231°
2026-05-06 23:52 46.47215 -71.88639 24206 ft 368 kts 231°
2026-05-06 23:52 46.45615 -71.91563 24868 ft 372 kts 231°
2026-05-06 23:52 46.43993 -71.94525 25515 ft 376 kts 231°
2026-05-06 23:52 46.42343 -71.97533 26116 ft 380 kts 231°
2026-05-06 23:53 46.40694 -72.00539 26685 ft 384 kts 231°
2026-05-06 23:53 46.39018 -72.03588 27230 ft 388 kts 231°
2026-05-06 23:53 46.37330 -72.06657 27696 ft 392 kts 231°
2026-05-06 23:53 46.35616 -72.09768 28223 ft 395 kts 231°
2026-05-06 23:54 46.33882 -72.12913 28714 ft 398 kts 231°
2026-05-06 23:54 46.32140 -72.16069 29155 ft 401 kts 231°
2026-05-06 23:54 46.30400 -72.19221 29534 ft 404 kts 231°
2026-05-06 23:54 46.28632 -72.22414 30038 ft 404 kts 231°
2026-05-06 23:55 46.26855 -72.25621 30657 ft 401 kts 231°
2026-05-06 23:55 46.25113 -72.28764 31251 ft 398 kts 231°
2026-05-06 23:55 46.23341 -72.31956 31671 ft 399 kts 231°
2026-05-06 23:55 46.21575 -72.35133 31995 ft 401 kts 231°
2026-05-06 23:56 46.19818 -72.38290 32375 ft 404 kts 231°
2026-05-06 23:56 46.18025 -72.41509 32824 ft 404 kts 231°
2026-05-06 23:56 46.16238 -72.44714 33288 ft 404 kts 231°
2026-05-06 23:56 46.14468 -72.47882 33852 ft 401 kts 231°
2026-05-06 23:57 46.12702 -72.51041 34406 ft 398 kts 230°
2026-05-06 23:57 46.10965 -72.54146 34818 ft 397 kts 231°
2026-05-06 23:57 46.09211 -72.57275 35111 ft 396 kts 231°
2026-05-06 23:57 46.07471 -72.60375 35375 ft 396 kts 231°
2026-05-06 23:58 46.05722 -72.63491 35630 ft 396 kts 231°
2026-05-06 23:58 46.04016 -72.66524 35879 ft 396 kts 231°
2026-05-06 23:58 46.02325 -72.69528 36113 ft 396 kts 232°
2026-05-06 23:58 46.00545 -72.72687 36337 ft 396 kts 232°
2026-05-06 23:59 45.98792 -72.75794 36613 ft 395 kts 232°
2026-05-06 23:59 45.97046 -72.78879 36919 ft 393 kts 232°
2026-05-06 23:59 45.95189 -72.81754 37184 ft 394 kts 226°
2026-05-06 23:59 45.93051 -72.84304 37415 ft 397 kts 220°
2026-05-07 00:00 45.90673 -72.86451 37564 ft 404 kts 213°
2026-05-07 00:00 45.88077 -72.88152 37599 ft 415 kts 206°
2026-05-07 00:00 45.85368 -72.89295 37713 ft 424 kts 199°
2026-05-07 00:00 45.82684 -72.89899 37744 ft 433 kts 194°
2026-05-07 00:01 45.76391 -72.90934 37843 ft 443 kts 193°
2026-05-07 00:01 45.70158 -72.91964 37849 ft 449 kts 193°
2026-05-07 00:02 45.63952 -72.92982 37848 ft 450 kts 193°
2026-05-07 00:02 45.57605 -72.94023 37851 ft 455 kts 193°
2026-05-07 00:03 45.51221 -72.95066 37848 ft 456 kts 193°
2026-05-07 00:03 45.44854 -72.96104 37851 ft 456 kts 193°
2026-05-07 00:04 45.38461 -72.97143 37850 ft 456 kts 193°
2026-05-07 00:04 45.32079 -72.98178 37848 ft 455 kts 194°
2026-05-07 00:05 45.25717 -72.99208 37859 ft 455 kts 194°
2026-05-07 00:05 45.19386 -73.00231 37850 ft 455 kts 194°
2026-05-07 00:06 45.13065 -73.01250 37850 ft 455 kts 194°
2026-05-07 00:06 45.06730 -73.02269 37858 ft 455 kts 194°
2026-05-07 00:07 45.00368 -73.03291 37857 ft 456 kts 193°
2026-05-07 00:07 44.94007 -73.04310 37854 ft 457 kts 194°
2026-05-07 00:08 44.87622 -73.05331 37851 ft 457 kts 194°
2026-05-07 00:08 44.81488 -73.06309 37843 ft 456 kts 194°
2026-05-07 00:09 44.75119 -73.07323 37847 ft 456 kts 194°
2026-05-07 00:09 44.68777 -73.08330 37846 ft 457 kts 194°
2026-05-07 00:10 44.62405 -73.09341 37850 ft 457 kts 194°
2026-05-07 00:10 44.56045 -73.10345 37852 ft 456 kts 194°
2026-05-07 00:11 44.49627 -73.11357 37862 ft 456 kts 195°
2026-05-07 00:11 44.43254 -73.12360 37860 ft 456 kts 195°
2026-05-07 00:12 44.36919 -73.13357 37856 ft 458 kts 195°
2026-05-07 00:12 44.30549 -73.14356 37855 ft 458 kts 195°
2026-05-07 00:13 44.24194 -73.15350 37851 ft 459 kts 195°
2026-05-07 00:13 44.17818 -73.16346 37850 ft 458 kts 195°
2026-05-07 00:14 44.11467 -73.17335 37848 ft 458 kts 195°
2026-05-07 00:14 44.05046 -73.18332 37856 ft 458 kts 195°
2026-05-07 00:15 43.98687 -73.19320 37849 ft 459 kts 195°
2026-05-07 00:15 43.92307 -73.20306 37857 ft 458 kts 196°
2026-05-07 00:16 43.85941 -73.21290 37852 ft 459 kts 195°
2026-05-07 00:16 43.79534 -73.22276 37810 ft 459 kts 195°
2026-05-07 00:17 43.73146 -73.23258 37848 ft 459 kts 195°
2026-05-07 00:17 43.66782 -73.24234 37853 ft 459 kts 196°
2026-05-07 00:18 43.60395 -73.25211 37852 ft 458 kts 196°
2026-05-07 00:18 43.54043 -73.26182 37834 ft 458 kts 196°
2026-05-07 00:19 43.47639 -73.27158 37841 ft 458 kts 196°
2026-05-07 00:19 43.41285 -73.28125 37831 ft 458 kts 196°
2026-05-07 00:20 43.34885 -73.29097 37835 ft 458 kts 197°
2026-05-07 00:20 43.28510 -73.30061 37833 ft 456 kts 197°
2026-05-07 00:21 43.22203 -73.31014 37819 ft 453 kts 197°
2026-05-07 00:21 43.15869 -73.31968 37811 ft 452 kts 197°
2026-05-07 00:22 43.09633 -73.32902 37787 ft 444 kts 198°
2026-05-07 00:22 43.06517 -73.33373 37401 ft 447 kts 197°
2026-05-07 00:22 43.03418 -73.33837 36858 ft 443 kts 198°
2026-05-07 00:23 43.00370 -73.34309 36276 ft 438 kts 200°
2026-05-07 00:23 42.97406 -73.35133 35746 ft 427 kts 206°
2026-05-07 00:23 42.94538 -73.36193 35212 ft 427 kts 207°
2026-05-07 00:23 42.91648 -73.37260 34622 ft 426 kts 207°
2026-05-07 00:24 42.88807 -73.38303 34061 ft 424 kts 207°
2026-05-07 00:24 42.85976 -73.39343 33484 ft 423 kts 207°
2026-05-07 00:24 42.83150 -73.40380 32942 ft 422 kts 208°
2026-05-07 00:24 42.80307 -73.41420 32379 ft 418 kts 207°
2026-05-07 00:25 42.77502 -73.42445 31838 ft 415 kts 207°
2026-05-07 00:25 42.74717 -73.43461 31275 ft 411 kts 207°
2026-05-07 00:25 42.71967 -73.44463 30739 ft 407 kts 207°
2026-05-07 00:25 42.69241 -73.45455 30198 ft 403 kts 207°
2026-05-07 00:26 42.66545 -73.46435 29663 ft 397 kts 207°
2026-05-07 00:26 42.63869 -73.47407 29142 ft 393 kts 207°
2026-05-07 00:26 42.61207 -73.48376 28614 ft 390 kts 207°
2026-05-07 00:26 42.58598 -73.49326 28096 ft 388 kts 206°
2026-05-07 00:27 42.55968 -73.50281 27579 ft 387 kts 206°
2026-05-07 00:27 42.53357 -73.51229 27058 ft 385 kts 206°
2026-05-07 00:27 42.50769 -73.52168 26541 ft 383 kts 206°
2026-05-07 00:27 42.48198 -73.53098 26043 ft 381 kts 206°
2026-05-07 00:28 42.45620 -73.54032 25530 ft 379 kts 205°
2026-05-07 00:28 42.43084 -73.54948 25025 ft 375 kts 205°
2026-05-07 00:28 42.40578 -73.55853 24539 ft 372 kts 204°
2026-05-07 00:28 42.38054 -73.56763 24043 ft 370 kts 204°
2026-05-07 00:29 42.35566 -73.57661 23541 ft 368 kts 204°
2026-05-07 00:29 42.33083 -73.58556 23056 ft 365 kts 204°
2026-05-07 00:30 42.25767 -73.61187 21603 ft 359 kts 204°
2026-05-07 00:30 42.23348 -73.62055 21124 ft 356 kts 204°
2026-05-07 00:30 42.20983 -73.62904 20662 ft 354 kts 203°
2026-05-07 00:30 42.18579 -73.63765 20181 ft 351 kts 203°
2026-05-07 00:31 42.16230 -73.64606 19718 ft 349 kts 203°
2026-05-07 00:31 42.13889 -73.65446 19260 ft 347 kts 202°
2026-05-07 00:31 42.11554 -73.66281 18800 ft 343 kts 202°
2026-05-07 00:31 42.09249 -73.67105 18344 ft 342 kts 202°
2026-05-07 00:32 42.06930 -73.67934 17884 ft 340 kts 201°
2026-05-07 00:32 42.04651 -73.68747 17516 ft 336 kts 201°
2026-05-07 00:32 42.02384 -73.69556 17143 ft 340 kts 201°
2026-05-07 00:32 42.00097 -73.70371 16672 ft 334 kts 202°
2026-05-07 00:33 41.97845 -73.71173 16234 ft 332 kts 201°
2026-05-07 00:33 41.95635 -73.71959 15798 ft 328 kts 201°
2026-05-07 00:33 41.93427 -73.72745 15360 ft 328 kts 201°
2026-05-07 00:33 41.91212 -73.73532 14918 ft 325 kts 201°
2026-05-07 00:34 41.89036 -73.74303 14494 ft 322 kts 201°
2026-05-07 00:34 41.86914 -73.75057 14074 ft 320 kts 201°
2026-05-07 00:34 41.84737 -73.75829 13640 ft 317 kts 201°
2026-05-07 00:34 41.82614 -73.76581 13240 ft 316 kts 201°
2026-05-07 00:35 41.80473 -73.77340 12802 ft 314 kts 201°
2026-05-07 00:35 41.78352 -73.78091 12388 ft 313 kts 201°
2026-05-07 00:35 41.76268 -73.78828 11962 ft 309 kts 201°
2026-05-07 00:35 41.74202 -73.79554 11561 ft 296 kts 201°
2026-05-07 00:36 41.72237 -73.80243 11183 ft 287 kts 201°
2026-05-07 00:36 41.70330 -73.80914 10809 ft 278 kts 201°
2026-05-07 00:36 41.68491 -73.81561 10442 ft 272 kts 201°
2026-05-07 00:36 41.66682 -73.82188 10089 ft 266 kts 199°
2026-05-07 00:37 41.64843 -73.82568 9735 ft 264 kts 194°
2026-05-07 00:37 41.63026 -73.82856 9401 ft 258 kts 193°
2026-05-07 00:37 41.61251 -73.83142 9057 ft 254 kts 194°
2026-05-07 00:37 41.59516 -73.83421 8724 ft 250 kts 195°
2026-05-07 00:38 41.57768 -73.83707 8387 ft 252 kts 194°
2026-05-07 00:38 41.56016 -73.83993 8049 ft 253 kts 193°
2026-05-07 00:38 41.54278 -73.84276 7713 ft 253 kts 193°
2026-05-07 00:38 41.52516 -73.84563 7375 ft 254 kts 193°
2026-05-07 00:39 41.50747 -73.84851 7039 ft 253 kts 193°
2026-05-07 00:39 41.48998 -73.85135 6703 ft 253 kts 193°
2026-05-07 00:39 41.47233 -73.85421 6363 ft 252 kts 193°
2026-05-07 00:39 41.45492 -73.85702 6034 ft 251 kts 193°
2026-05-07 00:40 41.43763 -73.85983 5702 ft 248 kts 193°
2026-05-07 00:40 41.42044 -73.86261 5375 ft 243 kts 192°
2026-05-07 00:40 41.40375 -73.86530 5057 ft 240 kts 193°
2026-05-07 00:40 41.38728 -73.86797 4741 ft 239 kts 192°
2026-05-07 00:41 41.37063 -73.87067 4418 ft 240 kts 193°
2026-05-07 00:41 41.35401 -73.87337 4095 ft 240 kts 192°
2026-05-07 00:41 41.33745 -73.87605 3782 ft 240 kts 192°
2026-05-07 00:41 41.32077 -73.87875 3456 ft 240 kts 192°
2026-05-07 00:42 41.30427 -73.88098 3153 ft 237 kts 184°
2026-05-07 00:42 41.28834 -73.87645 2987 ft 233 kts 159°
2026-05-07 00:42 41.27426 -73.86618 2997 ft 227 kts 154°
2026-05-07 00:42 41.26052 -73.85548 2987 ft 227 kts 154°
2026-05-07 00:43 41.24674 -73.84483 2992 ft 227 kts 155°
2026-05-07 00:43 41.23312 -73.83435 2994 ft 224 kts 154°
2026-05-07 00:43 41.22009 -73.82426 3012 ft 207 kts 155°
2026-05-07 00:43 41.20777 -73.81477 3006 ft 204 kts 154°
2026-05-07 00:44 41.19558 -73.80540 3002 ft 198 kts 155°
2026-05-07 00:44 41.18368 -73.79627 2848 ft 201 kts 155°
2026-05-07 00:44 41.17161 -73.78702 2600 ft 195 kts 154°
2026-05-07 00:44 41.16011 -73.77815 2352 ft 188 kts 155°
2026-05-07 00:45 41.14931 -73.76977 2090 ft 165 kts 155°
2026-05-07 00:45 41.14028 -73.76269 1972 ft 144 kts 156°
2026-05-07 00:45 41.13174 -73.75615 1728 ft 139 kts 155°
2026-05-07 00:45 41.12356 -73.74992 1558 ft 132 kts 155°
2026-05-07 00:46 41.11549 -73.74380 1361 ft 134 kts 153°
2026-05-07 00:46 41.10775 -73.73761 1202 ft 128 kts 149°
2026-05-07 00:46 41.09995 -73.73146 1021 ft 127 kts 153°
2026-05-07 00:46 41.09220 -73.72573 876 ft 126 kts 152°
2026-05-07 00:47 41.08451 -73.72002 698 ft 126 kts 152°
2026-05-07 00:47 41.07706 -73.71439 496 ft 124 kts 150°
2026-05-07 00:47 41.07004 -73.70904 413 ft 105 kts 150°
2026-05-07 00:47 41.06620 -73.70615 399 ft 32 kts 149°
2026-05-07 00:48 41.06445 -73.70483 394 ft 27 kts 149°
2026-05-07 00:48 41.06368 -73.70372 391 ft 14 kts 102°
2026-05-07 00:48 41.06354 -73.70285 389 ft 0 kts 102°
2026-05-07 00:48 41.06350 -73.70257 389 ft 8 kts 96°
2026-05-07 00:49 41.06392 -73.70226 390 ft 8 kts 341°
2026-05-07 00:49 41.06457 -73.70274 392 ft 13 kts 329°
2026-05-07 00:49 41.06556 -73.70350 394 ft 19 kts 330°
2026-05-07 00:49 41.06673 -73.70440 398 ft 18 kts 329°
2026-05-07 00:50 41.06762 -73.70515 402 ft 15 kts 331°
2026-05-07 00:50 41.06862 -73.70592 406 ft 17 kts 329°
2026-05-07 00:50 41.06935 -73.70649 408 ft 6 kts 328°
2026-05-07 00:50 41.06962 -73.70641 409 ft 3 kts 51°
2026-05-07 00:51 41.06974 -73.70613 409 ft 3 kts 60°
2026-05-07 00:51 41.06984 -73.70590 409 ft 0 kts 59°